N6EQ Weather Reports


time (UTC)temp
F
wind
direction
speed
knots
gust
knots
rain 1hr
in
rain 24hr
in
rain mn
in
humidity
%
barometer
mb
20260509181519 94 209 2.6 7.8 0.00 0.00 0.00 15 949.1
20260509180017 94 236 2.6 7.0 0.00 0.00 0.00 15 949.2
20260509174514 92 210 1.7 7.0 0.00 0.00 0.00 16 949.3
20260509173011 91 207 2.6 7.8 0.00 0.00 0.00 16 949.3
20260509171511 90 289 0.9 5.2 0.00 0.00 0.00 16 949.4
20260509170013 90 2.6 6.1 0.00 0.00 0.00 16 949.4
20260509164505 89 237 0.9 4.3 0.00 0.00 0.00 17 949.4
20260509163004 88 186 0.9 3.5 0.00 0.00 0.00 17 949.4
20260509161502 87 0.9 3.5 0.00 0.00 0.00 18 949.5
20260509160100 86 289 0.9 4.3 0.00 0.00 0.00 18 949.5
20260509154614 86 245 2.6 6.1 0.00 0.00 0.00 18 949.4
20260509153104 86 210 2.6 5.2 0.00 0.00 0.00 17 949.3
20260509151557 86 163 0.9 4.3 0.00 0.00 0.00 18 949.4
20260509150055 85 205 2.6 4.3 0.00 0.00 0.00 18 949.3
20260509144559 85 236 0.9 3.5 0.00 0.00 0.00 19 949.2
20260509143055 85 1.7 3.5 0.00 0.00 0.00 20 949.1
20260509141551 85 188 0.0 0.9 0.00 0.00 0.00 20 949.0
20260509134547 81 108 0.0 0.9 0.00 0.00 0.00 21 948.7
20260509133046 79 115 0.0 1.7 0.00 0.00 0.00 21 948.6
20260509131545 78 88 0.9 6.1 0.00 0.00 0.00 21 948.3
20260509130041 77 80 3.5 5.2 0.00 0.00 0.00 21 948.2
20260509124541 77 77 1.7 4.3 0.00 0.00 0.00 21 948.1
20260509123037 78 85 2.6 4.3 0.00 0.00 0.00 20 947.9
20260509121535 79 0.0 0.9 0.00 0.00 0.00 20 947.7
20260509120037 80 75 0.0 1.7 0.00 0.00 0.00 19 947.6
20260509114533 81 86 2.6 6.1 0.00 0.00 0.00 18 947.5
20260509113028 81 72 1.7 4.3 0.00 0.00 0.00 18 947.5
20260509111528 81 91 0.9 2.6 0.00 0.00 0.00 18 947.5
20260509110027 82 108 0.0 2.6 0.00 0.00 0.00 18 947.4
20260509104527 82 129 1.7 5.2 0.00 0.00 0.00 18 947.3
20260509103024 81 100 2.6 5.2 0.00 0.00 0.00 18 947.3
20260509101523 82 70 2.6 5.2 0.00 0.00 0.00 18 947.2
20260509100021 82 2.6 5.2 0.00 0.00 0.00 17 947.4
20260509094526 83 81 0.9 4.3 0.00 0.00 0.00 17 947.5
20260509093020 83 88 2.6 4.3 0.00 0.00 0.00 16 947.6
20260509091518 84 108 0.0 3.5 0.00 0.00 0.00 16 947.6
20260509090015 84 86 0.0 4.3 0.00 0.00 0.00 16 947.5
20260509084513 87 83 3.5 6.1 0.00 0.00 0.00 15 947.4
20260509083013 87 110 3.5 8.7 0.00 0.00 0.00 15 947.4
20260509081514 86 98 4.3 7.8 0.00 0.00 0.00 15 947.4
20260509080007 87 110 5.2 8.7 0.00 0.00 0.00 15 947.4
20260509074507 87 110 6.1 10.4 0.00 0.00 0.00 14 947.4
20260509073015 88 113 2.6 5.2 0.00 0.00 0.00 13 947.4
20260509071501 88 134 0.0 4.3 0.00 0.00 0.00 12 947.5
20260509064557 89 106 6.1 9.6 0.00 0.00 0.00 11 947.2
20260509063101 88 107 5.2 7.8 0.00 0.00 0.00 12 947.2
20260509061601 89 105 5.2 7.8 0.00 0.00 0.00 12 947.2
20260509060104 90 109 5.2 7.8 0.00 0.00 0.00 12 947.1
20260509054611 90 103 5.2 7.8 0.00 0.00 0.00 12 947.1
20260509053058 90 108 4.3 7.0 0.00 0.00 0.00 12 947.1
20260509051554 92 124 2.6 6.1 0.00 0.00 0.00 12 947.1
20260509050057 93 144 3.5 6.1 0.00 0.00 0.00 11 947.1
20260509044552 93 148 2.6 5.2 0.00 0.00 0.00 12 947.0
20260509043051 94 149 3.5 8.7 0.00 0.00 0.00 11 946.9
20260509041551 94 2.6 7.0 0.00 0.00 0.00 11 946.7
20260509040118 95 183 6.1 11.3 0.00 0.00 0.00 11 946.5
20260509034556 95 129 3.5 8.7 0.00 0.00 0.00 11 946.3
20260509033052 96 137 4.3 6.1 0.00 0.00 0.00 10 946.2
20260509031548 97 114 5.2 8.7 0.00 0.00 0.00 10 946.0
20260509030049 97 144 5.2 9.6 0.00 0.00 0.00 10 945.7
20260509024549 98 138 4.3 10.4 0.00 0.00 0.00 10 945.6
20260509023047 98 146 5.2 14.8 0.00 0.00 0.00 10 945.4
20260509021546 100 195 6.1 13.9 0.00 0.00 0.00 10 945.4
20260509020045 101 191 5.2 11.3 0.00 0.00 0.00 10 945.3
20260509014544 101 203 6.1 10.4 0.00 0.00 0.00 10 945.2
20260509013049 101 157 7.8 13.9 0.00 0.00 0.00 10 945.2
20260509011554 102 134 3.5 11.3 0.00 0.00 0.00 10 945.3
20260509010046 102 230 8.7 13.0 0.00 0.00 0.00 10 945.3
20260509004548 102 206 1.7 13.9 0.00 0.00 0.00 10 945.5
20260509003040 102 143 5.2 9.6 0.00 0.00 0.00 10 945.5
20260509001537 102 240 9.6 14.8 0.00 0.00 0.00 10 945.6
20260509000037 103 244 4.3 13.0 0.00 0.00 0.00 10 945.8
20260508234534 102 284 3.5 13.9 0.00 0.00 0.00 10 945.9
20260508233033 102 277 8.7 13.9 0.00 0.00 0.00 11 946.0
20260508231531 102 212 2.6 7.0 0.00 0.00 0.00 10 946.1
20260508230030 102 300 2.6 9.6 0.00 0.00 0.00 10 946.3
20260508224528 102 220 4.3 9.6 0.00 0.00 0.00 10 946.4
20260508223039 102 206 0.0 8.7 0.00 0.00 0.00 10 946.6
20260508221524 102 109 0.9 3.5 0.00 0.00 0.00 9 946.9
20260508220023 102 215 0.0 5.2 0.00 0.00 0.00 10 947.2
20260508214519 100 257 0.9 11.3 0.00 0.00 0.00 10 947.4
20260508213017 101 280 0.9 7.8 0.00 0.00 0.00 10 947.6
20260508211515 100 184 3.5 7.0 0.00 0.00 0.00 11 947.8
20260508210012 100 238 4.3 9.6 0.00 0.00 0.00 11 948.1
20260508204520 100 0.0 7.0 0.00 0.00 0.00 11 948.3
20260508203010 100 3.5 5.2 0.00 0.00 0.00 11 948.4
20260508201508 99 0.9 8.7 0.00 0.00 0.00 12 948.7
20260508200005 97 212 0.9 9.6 0.00 0.00 0.00 13 948.9
20260508194506 97 213 3.5 7.0 0.00 0.00 0.00 13 949.1
20260508193001 95 226 5.2 8.7 0.00 0.00 0.00 14 949.3
20260508191602 95 4.3 9.6 0.00 0.00 0.00 14 949.5
20260508190056 94 4.3 7.8 0.00 0.00 0.00 14 949.6
20260508184607 93 181 4.3 9.6 0.00 0.00 0.00 15 949.9
20260508183052 92 2.6 10.4 0.00 0.00 0.00 15 950.0